Rbgn^[z[y[W
メイン
   新天体発見情報
     Comet C/2017 K4 (ATLAS)
投稿するにはまず登録を

スレッド表示 | 新しいものから 前のトピック | 次のトピック | 下へ
投稿者 スレッド
佐藤裕久
投稿日時: 2017-6-10 12:22
モデレータ
登録日: 2005-6-12
居住地: 日本
投稿: 1822
オンライン
Comet C/2017 K4 (ATLAS)

Larry Denneau (ハワイ大学)は、5月26日、小惑星地球衝突最終警報システム Asteroid Terrestrial-
impact Last Alert System (ATLAS)チームの代表の通報によると、HaleakalaにあるATLAS 0.5-m f/2.0 
Schmidt望遠鏡で得たCCD露出から彗星を発見した。
John TonryとAren Heinzeは、適度な4" のコマと北西に尾があることを見つけた。
小惑星センターのNEOCPとPCCP webpageに公表後、R. J. WainscoatとD. Woodworth (3.6-m Canada-
France-Hawaii Telescope, Mauna Kea)や佐藤英貴氏(東京都文京区, iTelescope天文台, 0.43-m 
f/6.8 アストログラフ+輝度フィルター, Siding Spring, 遠隔操作)らCCD位置観測者によって彗星
状と観測された。

発見位置は次のとおり、

     2017 UT             R.A. (2000) Decl.       Mag.
     May  26.51169   17 12 16.32   -39 08 52.2   17.0
          26.52853   17 12 15.69   -39 08 50.1   17.0
          26.56167   17 12 14.48   -39 08 46.6   17.0
          26.57849   17 12 13.86   -39 08 44.9   17.0

放物線軌道要素と位置推算表は次のとおり、

Orbital elements:
    C/2017 K4 (ATLAS)
T 2018 Jan. 13.32712 TT                                 MPCW
q   2.5405948            (2000.0)            P               Q
                   Peri.   20.42418     +0.73020732     +0.63107741
                   Node   297.65051     -0.66068975     +0.55462310
e   1.0            Incl.   17.19066     -0.17402968     +0.54234170
From 105 observations 2017 May 26-June 1.

Ephemeris:
    C/2017 K4 (ATLAS)
Date    TT    R. A. (2000) Decl.     Delta      r     Elong.  Phase   m1
2017 05 02    17 21 43.3 -39 16 01   2.8814  3.6805   136.7    10.8  18.0
...
2017 05 17    17 17 11.0 -39 19 28   2.6625  3.5756   150.2     8.1  17.7
...
2017 05 25    17 13 08.4 -39 11 18   2.5666  3.5205   156.9     6.5  17.5
...
2017 05 31    17 09 32.6 -38 59 38   2.5052  3.4797   161.0     5.4  17.4
2017 06 01    17 08 54.5 -38 57 13   2.4959  3.4729   161.6     5.3  17.4
2017 06 02    17 08 15.9 -38 54 38   2.4868  3.4661   162.2     5.1  17.4
...
2017 06 08    17 04 16.4 -38 36 13   2.4380  3.4258   164.2     4.6  17.3
...
2017 06 16    16 58 49.1 -38 03 44   2.3878  3.3728   163.1     5.0  17.2
...
2017 07 01    16 49 32.2 -36 40 57   2.3390  3.2756   152.7     8.2  17.0

(CBET 4397、MPEC 2017-L04)

スレッド表示 | 新しいものから 前のトピック | 次のトピック | トップ

投稿するにはまず登録を
 
© 1999-2013 Tsutomu Seki.